Powrót do katalogu

ARGOS

AktywnyNaukaSSO
NORAD 25634·PAYLOAD·🇺🇸 United States

Wystrzelony Feb 23, 1999 z Vandenberg Space Force Base

Loading…

Następne Przeloty (najbliższe 24 godziny)

TLE

ŚwieżeSource: Space-Track

Epoka: Sep 14, 2026, 14:46 UTC

1 25634U 99008A   26257.61542273  .00000017  00000-0  27923-4 0  9993
2 25634  98.5241 220.3681 0010856 136.4874 223.7161 14.20001435426998

Śledź ARGOS w czasie rzeczywistym z AllMySat

Download on the App Store